OK1FET-5 Weather Reports


Display with metric or nautical units.
time (UTC)temp
F
wind
direction
speed
MPH
gust
MPH
rain 1hr
in
rain 24hr
in
rain mn
in
humidity
%
barometer
mb
20260906163303 71 215 0.0 1.0 0.00 0.00 0.00 38 1028.0
20260906161311 73 122 1.0 2.0 0.00 0.00 0.00 37 1027.9
20260906160316 73 120 1.0 2.0 0.00 0.00 0.00 37 1028.0
20260906155320 74 159 1.0 5.0 0.00 0.00 0.00 36 1028.1
20260906154324 75 237 1.0 2.0 0.00 0.00 0.00 35 1028.2
20260906153328 75 235 1.0 3.0 0.00 0.00 0.00 35 1028.1
20260906152333 75 131 1.0 3.0 0.00 0.00 0.00 35 1028.1
20260906151337 76 280 1.0 4.0 0.00 0.00 0.00 34 1028.1
20260906150341 77 264 1.0 3.0 0.00 0.00 0.00 34 1028.2
20260906145345 78 299 2.0 5.0 0.00 0.00 0.00 33 1028.2
20260906144349 78 276 1.0 5.0 0.00 0.00 0.00 33 1028.3
20260906143354 78 287 2.0 4.0 0.00 0.00 0.00 33 1028.3
20260906142358 78 287 2.0 6.0 0.00 0.00 0.00 33 1028.3
20260906141403 78 290 3.0 7.0 0.00 0.00 0.00 33 1028.3
20260906140406 78 290 5.0 11.0 0.00 0.00 0.00 32 1028.3
20260906135410 79 298 3.0 8.0 0.00 0.00 0.00 32 1028.3
20260906134415 79 308 2.0 7.0 0.00 0.00 0.00 33 1028.3
20260906133419 78 290 3.0 10.0 0.00 0.00 0.00 33 1028.3
20260906132423 78 278 3.0 9.0 0.00 0.00 0.00 33 1028.3
20260906131427 79 281 5.0 9.0 0.00 0.00 0.00 32 1028.5
20260906130432 80 232 2.0 5.0 0.00 0.00 0.00 32 1028.5
20260906125436 79 309 3.0 7.0 0.00 0.00 0.00 32 1028.4
20260906124440 79 284 2.0 6.0 0.00 0.00 0.00 33 1028.5
20260906123444 79 287 4.0 7.0 0.00 0.00 0.00 32 1028.6
20260906121453 79 299 3.0 11.0 0.00 0.00 0.00 33 1028.8
20260906120457 79 290 3.0 6.0 0.00 0.00 0.00 32 1028.8
20260906115501 79 295 3.0 8.0 0.00 0.00 0.00 32 1028.9
20260906114505 80 291 3.0 7.0 0.00 0.00 0.00 32 1029.0
20260906113509 80 279 4.0 10.0 0.00 0.00 0.00 32 1029.0
20260906112514 81 273 3.0 6.0 0.00 0.00 0.00 32 1028.9
20260906111518 80 267 3.0 6.0 0.00 0.00 0.00 32 1029.1
20260906110522 79 267 3.0 6.0 0.00 0.00 0.00 34 1029.2
20260906105526 75 294 4.0 7.0 0.00 0.00 0.00 36 1029.2
20260906104530 77 284 2.0 6.0 0.00 0.00 0.00 37 1029.3
20260906103535 71 198 2.0 4.0 0.00 0.00 0.00 42 1029.5
20260906102539 73 243 2.0 5.0 0.00 0.00 0.00 40 1029.4
20260906101543 76 296 3.0 10.0 0.00 0.00 0.00 37 1029.6
20260906100547 79 284 4.0 8.0 0.00 0.00 0.00 35 1029.6
20260906095552 79 280 4.0 10.0 0.00 0.00 0.00 35 1029.6
20260906094556 78 288 3.0 7.0 0.00 0.00 0.00 36 1029.5
20260906093600 77 288 3.0 11.0 0.00 0.00 0.00 38 1029.5
20260906092604 75 303 3.0 6.0 0.00 0.00 0.00 40 1029.5
20260906091609 72 314 3.0 8.0 0.00 0.00 0.00 41 1029.5
20260906090613 78 293 4.0 7.0 0.00 0.00 0.00 37 1029.6
20260906085617 76 313 4.0 11.0 0.00 0.00 0.00 39 1029.6
20260906084621 75 327 3.0 7.0 0.00 0.00 0.00 41 1029.6
20260906083626 74 294 2.0 9.0 0.00 0.00 0.00 42 1029.7
20260906081634 65 289 3.0 7.0 0.00 0.00 0.00 52 1029.3
20260906080638 65 293 3.0 5.0 0.00 0.00 0.00 52 1029.4
20260906075642 68 286 2.0 7.0 0.00 0.00 0.00 50 1029.2
20260906074647 66 306 2.0 7.0 0.00 0.00 0.00 52 1029.0
20260906073651 66 303 3.0 6.0 0.00 0.00 0.00 53 1028.9
20260906072655 66 301 2.0 6.0 0.00 0.00 0.00 53 1028.8
20260906071659 67 274 2.0 5.0 0.00 0.00 0.00 51 1028.7
20260906070704 70 300 3.0 7.0 0.00 0.00 0.00 48 1028.7
20260906065708 70 287 3.0 6.0 0.00 0.00 0.00 49 1028.6
20260906064712 69 294 3.0 6.0 0.00 0.00 0.00 51 1028.4
20260906063716 68 278 3.0 8.0 0.00 0.00 0.00 51 1028.4
20260906062721 68 307 2.0 7.0 0.00 0.00 0.00 55 1028.4
20260906060729 66 288 2.0 5.0 0.00 0.00 0.00 58 1028.2
20260906055734 65 70 1.0 4.0 0.00 0.00 0.00 60 1027.9
20260906053742 63 308 1.0 3.0 0.00 0.00 0.00 61 1027.9
20260906052746 61 152 0.0 1.0 0.00 0.00 0.00 64 1027.9
20260906051750 58 171 0.0 1.0 0.00 0.00 0.00 67 1027.7
20260906050755 56 115 1.0 3.0 0.00 0.00 0.00 70 1027.6
20260906045759 56 289 1.0 3.0 0.00 0.00 0.00 70 1027.6
20260906044804 54 299 1.0 3.0 0.00 0.00 0.00 72 1027.5
20260906043808 53 284 1.0 2.0 0.00 0.00 0.00 73 1027.4
20260906042812 53 281 3.0 5.0 0.00 0.00 0.00 73 1027.4
20260906041816 52 279 1.0 2.0 0.00 0.00 0.00 72 1027.4
20260906040820 52 256 0.0 1.0 0.00 0.00 0.00 72 1027.2
20260906035825 52 257 0.0 2.0 0.00 0.00 0.00 72 1027.2
20260906034829 52 260 0.0 2.0 0.00 0.00 0.00 71 1027.1
20260906033834 52 257 1.0 4.0 0.00 0.00 0.00 71 1027.0
20260906032838 53 244 1.0 3.0 0.00 0.00 0.00 71 1026.9
20260906031842 53 250 2.0 6.0 0.00 0.00 0.00 71 1026.9
20260906030846 53 243 1.0 3.0 0.00 0.00 0.00 70 1026.8
20260906025850 53 256 1.0 3.0 0.00 0.00 0.00 68 1026.8
20260906024855 52 242 1.0 2.0 0.00 0.00 0.00 68 1026.6
20260906023859 53 236 0.0 1.0 0.00 0.00 0.00 66 1026.5
20260906022903 54 197 0.0 2.0 0.00 0.00 0.00 66 1026.4
20260906021908 54 192 0.0 2.0 0.00 0.00 0.00 67 1026.3
20260906020912 53 299 1.0 3.0 0.00 0.00 0.00 65 1026.2
20260906015916 53 182 0.0 2.0 0.00 0.00 0.00 66 1026.2
20260906014920 54 115 1.0 2.0 0.00 0.00 0.00 66 1026.2
20260906013925 54 125 1.0 3.0 0.00 0.00 0.00 66 1026.1
20260906011934 54 175 0.0 3.0 0.00 0.00 0.00 65 1026.0
20260906010938 55 145 0.0 2.0 0.00 0.00 0.00 66 1026.0
20260906005942 55 14 1.0 2.0 0.00 0.00 0.00 63 1026.0
20260906004946 56 190 1.0 3.0 0.00 0.00 0.00 63 1026.0
20260906003951 56 181 1.0 4.0 0.00 0.00 0.00 65 1026.1
20260906002955 56 206 1.0 3.0 0.00 0.00 0.00 65 1026.0
20260906001959 56 154 1.0 2.0 0.00 0.00 0.00 64 1025.9
20260906001004 57 214 1.0 2.0 0.00 0.00 0.00 62 1025.7
20260906000008 57 245 1.0 3.0 0.00 0.00 0.00 61 1025.7
20260905235012 57 211 1.0 2.0 0.00 0.00 0.00 63 1025.7
20260905234016 58 184 1.0 3.0 0.00 0.00 0.00 62 1025.7
20260905233020 58 160 1.0 3.0 0.00 0.00 0.00 60 1025.6
20260905232024 58 152 1.0 4.0 0.00 0.00 0.00 61 1025.6
20260905231029 58 37 2.0 4.0 0.00 0.00 0.00 59 1025.5
20260905230033 59 345 2.0 5.0 0.00 0.00 0.00 58 1025.3
20260905225037 59 214 1.0 3.0 0.00 0.00 0.00 58 1025.2
20260905224042 60 295 2.0 5.0 0.00 0.00 0.00 57 1025.1
20260905223046 60 332 4.0 10.0 0.00 0.00 0.00 57 1024.9
20260905222050 61 325 4.0 7.0 0.00 0.00 0.00 57 1024.8
20260905221054 60 325 3.0 6.0 0.00 0.00 0.00 57 1024.7
20260905220059 60 319 2.0 7.0 0.00 0.00 0.00 58 1024.7
20260905215103 60 294 3.0 7.0 0.00 0.00 0.00 58 1024.7
20260905214107 60 310 4.0 8.0 0.00 0.00 0.00 58 1024.6
20260905213112 60 292 2.0 5.0 0.00 0.00 0.00 57 1024.5
20260905210124 61 334 2.0 6.0 0.00 0.00 0.00 55 1024.3
20260905205128 61 331 3.0 6.0 0.00 0.00 0.00 54 1024.2
20260905204133 62 314 4.0 9.0 0.00 0.00 0.00 54 1024.2
20260905203137 62 299 3.0 5.0 0.00 0.00 0.00 53 1024.0
20260905202141 62 306 2.0 6.0 0.00 0.00 0.00 53 1024.0
20260905201145 62 300 2.0 5.0 0.00 0.00 0.00 52 1023.9
20260905200150 62 293 1.0 4.0 0.00 0.00 0.00 52 1023.8
20260905195154 62 314 2.0 7.0 0.00 0.00 0.00 52 1023.6
20260905193202 62 297 2.0 5.0 0.00 0.00 0.00 52 1023.4
20260905192207 62 307 3.0 5.0 0.00 0.00 0.00 52 1023.4
20260905191211 62 293 2.0 8.0 0.00 0.00 0.00 51 1023.4
20260905190215 62 284 2.0 4.0 0.00 0.00 0.00 51 1023.1
20260905185219 63 311 2.0 8.0 0.00 0.00 0.00 50 1023.0
20260905184223 64 305 3.0 7.0 0.00 0.00 0.00 49 1022.8
20260905183228 64 311 4.0 9.0 0.00 0.00 0.00 49 1022.8
20260905181236 63 302 3.0 9.0 0.00 0.00 0.00 50 1022.5
20260905175245 65 282 4.0 7.0 0.00 0.00 0.00 48 1022.1
20260905174249 65 289 3.0 5.0 0.00 0.00 0.00 48 1021.8
20260905173253 65 296 3.0 6.0 0.00 0.00 0.00 46 1021.7
20260905172257 66 300 3.0 9.0 0.00 0.00 0.00 45 1021.6
20260905171302 67 284 3.0 6.0 0.00 0.00 0.00 44 1021.6
20260905170306 68 298 4.0 8.0 0.00 0.00 0.00 43 1021.4
20260905165310 70 296 4.0 10.0 0.00 0.00 0.00 42 1021.4
20260905164314 71 310 4.0 8.0 0.00 0.00 0.00 41 1021.1